STARLINK-34654 (64858 NORAD) Tracking and Keplerian Element Data

This shows tracking and keplerian element data for the satellite.

Feedback or suggestion? Click here.




ElementValue
Catalog64858
NameSTARLINK-34654
Epoch Orbit2344
Epoch Day354.08380454
Epoch Year2025
RAAN207.106
Inclination97.6002
Eccentricity0.00018
Argument of Perigee74.4268
Mean Anonmoly285.7158
Mean Motion15.05652694
Decay Rate3.31E-05
L11 64858U 25152S 25354.08380454 .00003310 00000+0 23347-3 0 9995
L22 64858 97.6002 207.1060 0001800 74.4268 285.7158 15.05652694 23445



Live tracking and technical data element details for STARLINK-34654 (NORAD 64858). STARLINK-34654 can be tracked NOW for your location showing map with azimuth and elevation plus other details from your city location.







IsCatalogInMostPopularTable: catalog: 64858, numindb: 3
Update: records affected: 1



GetName: 64858 STARLINK-34654

Hit Count: updated at: Sat, 07 Feb 2026 08:34:22 GMT